AMU821 RKSI-VMMC

Flight info

Callsign AMU821
Flight time 3h 14m
Altitude 32000
Route BOPTA3H BOPTA Z51 BEDES Y711 MUGUS Y742 SALMI Q11 DRAKE A1 ELATO J101 NEDLE/N0415F220 J101 SMT
Aircraft A321/M-SDE3FGHIRWY/LB1

Departure

Time 2026-04-21 07:05
Airport Incheon International Airport (RKSI)

Arrival

Time 2026-04-21 10:19
Airport Macau International Airport (VMMC)
Time Latitude Longitude Altitude Speed Heading
2026-04-21 06:46 37.46926 126.42689 33 ft 0 kts 47°
2026-04-21 06:56 37.46913 126.42671 31 ft 4 kts 44°
2026-04-21 06:56 37.46892 126.42648 33 ft 4 kts 37°
2026-04-21 06:57 37.46870 126.42630 33 ft 4 kts 24°
2026-04-21 06:57 37.46846 126.42622 33 ft 4 kts 346°
2026-04-21 06:57 37.46834 126.42629 33 ft 1 kts 319°
2026-04-21 06:57 37.46833 126.42630 33 ft 0 kts 319°
2026-04-21 06:59 37.46843 126.42619 31 ft 4 kts 318°
2026-04-21 07:00 37.46864 126.42591 32 ft 5 kts 305°
2026-04-21 07:00 37.46871 126.42543 33 ft 6 kts 265°
2026-04-21 07:00 37.46850 126.42494 32 ft 7 kts 232°
2026-04-21 07:00 37.46821 126.42445 33 ft 7 kts 235°
2026-04-21 07:01 37.46791 126.42391 33 ft 8 kts 235°
2026-04-21 07:01 37.46763 126.42333 31 ft 8 kts 250°
2026-04-21 07:01 37.46826 126.42230 31 ft 8 kts 325°
2026-04-21 07:02 37.46874 126.42186 33 ft 9 kts 324°
2026-04-21 07:02 37.46929 126.42138 32 ft 11 kts 324°
2026-04-21 07:02 37.46996 126.42077 33 ft 13 kts 324°
2026-04-21 07:02 37.47078 126.42004 33 ft 15 kts 325°
2026-04-21 07:03 37.47164 126.41929 32 ft 15 kts 324°
2026-04-21 07:03 37.47249 126.41853 33 ft 14 kts 324°
2026-04-21 07:03 37.47318 126.41791 33 ft 9 kts 324°
2026-04-21 07:03 37.47346 126.41744 33 ft 6 kts 288°
2026-04-21 07:04 37.47337 126.41696 31 ft 1 kts 236°
2026-04-21 07:04 37.47336 126.41692 31 ft 3 kts 236°
2026-04-21 07:04 37.47299 126.41632 32 ft 11 kts 223°
2026-04-21 07:04 37.47195 126.41633 33 ft 31 kts 148°
2026-04-21 07:05 37.46790 126.41994 31 ft 109 kts 144°
2026-04-21 07:05 37.45998 126.42701 35 ft 168 kts 146°
2026-04-21 07:05 37.44998 126.43589 667 ft 173 kts 147°
2026-04-21 07:05 37.44010 126.44485 1483 ft 175 kts 151°
2026-04-21 07:06 37.42972 126.45273 2164 ft 176 kts 154°
2026-04-21 07:06 37.41858 126.46073 2364 ft 194 kts 155°
2026-04-21 07:06 37.40620 126.46965 2497 ft 215 kts 154°
2026-04-21 07:06 37.39274 126.47959 2636 ft 235 kts 154°
2026-04-21 07:07 37.37709 126.48764 2828 ft 251 kts 170°
2026-04-21 07:07 37.35974 126.49311 3321 ft 260 kts 169°
2026-04-21 07:07 37.34219 126.49892 3919 ft 264 kts 169°
2026-04-21 07:07 37.32421 126.50503 4549 ft 267 kts 169°
2026-04-21 07:08 37.30615 126.51117 5161 ft 271 kts 169°
2026-04-21 07:08 37.28781 126.51739 5749 ft 275 kts 169°
2026-04-21 07:08 37.26984 126.52667 6331 ft 284 kts 155°
2026-04-21 07:08 37.25235 126.53869 6936 ft 288 kts 155°
2026-04-21 07:09 37.23461 126.55079 7518 ft 291 kts 155°
2026-04-21 07:09 37.21668 126.56290 8104 ft 295 kts 155°
2026-04-21 07:09 37.19872 126.57501 8694 ft 299 kts 155°
2026-04-21 07:09 37.18035 126.58742 9267 ft 302 kts 155°
2026-04-21 07:10 37.16175 126.59999 9809 ft 306 kts 155°
2026-04-21 07:10 37.14274 126.61238 10250 ft 313 kts 161°
2026-04-21 07:10 37.12129 126.62082 10380 ft 327 kts 173°
2026-04-21 07:10 37.09856 126.62443 10508 ft 340 kts 182°
2026-04-21 07:11 37.07438 126.62429 10635 ft 355 kts 186°
2026-04-21 07:11 37.04898 126.62355 10762 ft 373 kts 185°
2026-04-21 07:11 37.02247 126.62319 10892 ft 389 kts 185°
2026-04-21 07:11 36.99510 126.62308 11258 ft 396 kts 184°
2026-04-21 07:12 36.96735 126.62314 11782 ft 400 kts 184°
2026-04-21 07:12 36.93937 126.62357 12309 ft 404 kts 184°
2026-04-21 07:12 36.91126 126.62413 12821 ft 407 kts 184°
2026-04-21 07:12 36.88279 126.62466 13330 ft 409 kts 185°
2026-04-21 07:13 36.85422 126.62425 13838 ft 411 kts 187°
2026-04-21 07:13 36.82560 126.62280 14336 ft 414 kts 188°
2026-04-21 07:13 36.79659 126.62075 14840 ft 418 kts 189°
2026-04-21 07:13 36.76751 126.61856 15350 ft 421 kts 189°
2026-04-21 07:14 36.73835 126.61858 15804 ft 431 kts 181°
2026-04-21 07:14 36.70802 126.62495 16268 ft 441 kts 171°
2026-04-21 07:14 36.67864 126.63499 16695 ft 445 kts 170°
2026-04-21 07:14 36.64879 126.64518 16928 ft 447 kts 170°
2026-04-21 07:15 36.61887 126.65530 17073 ft 449 kts 171°
2026-04-21 07:15 36.58839 126.66556 17502 ft 452 kts 171°
2026-04-21 07:15 36.55797 126.67578 17898 ft 455 kts 171°
2026-04-21 07:15 36.52735 126.68602 18272 ft 458 kts 171°
2026-04-21 07:16 36.49649 126.69632 18680 ft 460 kts 171°
2026-04-21 07:16 36.46564 126.70656 19096 ft 462 kts 172°
2026-04-21 07:16 36.43438 126.71695 19520 ft 463 kts 172°
2026-04-21 07:16 36.40320 126.72733 19902 ft 466 kts 172°
2026-04-21 07:17 36.37178 126.73780 20258 ft 468 kts 172°
2026-04-21 07:17 36.34026 126.74842 20628 ft 470 kts 172°
2026-04-21 07:17 36.30864 126.75913 20989 ft 472 kts 172°
2026-04-21 07:17 36.27678 126.76993 21340 ft 475 kts 172°
2026-04-21 07:18 36.24529 126.78059 21681 ft 477 kts 172°
2026-04-21 07:18 36.21316 126.79143 22053 ft 478 kts 173°
2026-04-21 07:18 36.18103 126.80188 22382 ft 477 kts 176°
2026-04-21 07:18 36.14843 126.80796 22706 ft 469 kts 184°
2026-04-21 07:19 36.11612 126.80841 23050 ft 460 kts 192°
2026-04-21 07:19 36.08441 126.80498 23378 ft 459 kts 194°
2026-04-21 07:19 36.05258 126.80139 23718 ft 460 kts 194°
2026-04-21 07:19 36.02059 126.79788 24019 ft 462 kts 194°
2026-04-21 07:20 35.98860 126.79444 24346 ft 463 kts 194°
2026-04-21 07:20 35.95641 126.79101 24683 ft 464 kts 194°
2026-04-21 07:20 35.92425 126.78756 25043 ft 464 kts 194°
2026-04-21 07:20 35.89209 126.78410 25438 ft 464 kts 194°
2026-04-21 07:21 35.85995 126.78066 25841 ft 463 kts 194°
2026-04-21 07:21 35.82792 126.77725 26247 ft 462 kts 194°
2026-04-21 07:21 35.79593 126.77380 26648 ft 460 kts 195°
2026-04-21 07:21 35.76408 126.77033 27021 ft 460 kts 195°
2026-04-21 07:22 35.73218 126.76686 27386 ft 459 kts 195°
2026-04-21 07:22 35.70039 126.76341 27754 ft 458 kts 195°
2026-04-21 07:22 35.66870 126.75997 28119 ft 457 kts 195°
2026-04-21 07:22 35.63705 126.75652 28475 ft 456 kts 195°
2026-04-21 07:23 35.60540 126.75306 28839 ft 455 kts 196°
2026-04-21 07:23 35.57429 126.74971 29174 ft 455 kts 196°
2026-04-21 07:23 35.54276 126.74635 29488 ft 454 kts 196°
2026-04-21 07:23 35.51126 126.74299 29809 ft 454 kts 196°
2026-04-21 07:24 35.47985 126.73961 30149 ft 453 kts 196°
2026-04-21 07:24 35.44849 126.73624 30495 ft 452 kts 196°
2026-04-21 07:24 35.41723 126.73290 30846 ft 451 kts 196°
2026-04-21 07:24 35.38595 126.72954 31186 ft 449 kts 196°
2026-04-21 07:25 35.35483 126.72624 31490 ft 449 kts 196°
2026-04-21 07:25 35.32375 126.72296 31761 ft 448 kts 196°
2026-04-21 07:25 35.29283 126.71972 31969 ft 447 kts 196°
2026-04-21 07:25 35.26172 126.71653 32020 ft 449 kts 196°
2026-04-21 07:26 35.19927 126.70995 32008 ft 451 kts 196°
2026-04-21 07:26 35.13660 126.70304 32008 ft 452 kts 196°
2026-04-21 07:27 35.07395 126.69623 32008 ft 453 kts 196°
2026-04-21 07:27 35.01113 126.68953 32009 ft 453 kts 196°
2026-04-21 07:28 34.94815 126.68296 32004 ft 454 kts 195°
2026-04-21 07:28 34.88564 126.67639 32002 ft 455 kts 195°
2026-04-21 07:29 34.82254 126.66978 32004 ft 455 kts 195°
2026-04-21 07:29 34.75935 126.66313 32009 ft 456 kts 195°
2026-04-21 07:30 34.70684 126.65756 32011 ft 455 kts 195°
2026-04-21 07:30 34.64365 126.65086 32007 ft 456 kts 195°
2026-04-21 07:31 34.58037 126.64429 32072 ft 456 kts 195°
2026-04-21 07:31 34.51709 126.63765 32273 ft 456 kts 195°
2026-04-21 07:32 34.48555 126.63429 32129 ft 457 kts 195°
2026-04-21 07:32 34.45377 126.63096 32096 ft 456 kts 195°
2026-04-21 07:32 34.39048 126.62435 32101 ft 457 kts 195°
2026-04-21 07:33 34.32705 126.61779 32101 ft 457 kts 195°
2026-04-21 07:33 34.26369 126.61112 32109 ft 457 kts 195°
2026-04-21 07:34 34.20037 126.60456 32119 ft 457 kts 195°
2026-04-21 07:34 34.13702 126.59803 32120 ft 457 kts 195°
2026-04-21 07:35 34.07358 126.59141 32123 ft 457 kts 195°
2026-04-21 07:35 34.01011 126.58479 32120 ft 457 kts 195°
2026-04-21 07:36 33.94672 126.57822 32116 ft 457 kts 194°
2026-04-21 07:36 33.88333 126.57159 32121 ft 457 kts 194°
2026-04-21 07:37 33.82256 126.55903 32110 ft 440 kts 207°
2026-04-21 07:37 33.76531 126.53421 32120 ft 437 kts 209°
2026-04-21 07:38 33.70803 126.50932 32116 ft 438 kts 209°
2026-04-21 07:38 33.65074 126.48461 32115 ft 438 kts 208°
2026-04-21 07:39 33.59339 126.45990 32115 ft 438 kts 209°
2026-04-21 07:39 33.53601 126.43510 32112 ft 438 kts 208°
2026-04-21 07:40 33.47859 126.41028 32124 ft 439 kts 208°
2026-04-21 07:40 33.42109 126.38551 32130 ft 439 kts 208°
2026-04-21 07:41 33.36352 126.36081 32131 ft 439 kts 208°
2026-04-21 07:41 33.30606 126.33612 32122 ft 439 kts 208°
2026-04-21 07:42 33.24859 126.31147 32129 ft 439 kts 208°
2026-04-21 07:42 33.19114 126.28681 32122 ft 438 kts 208°
2026-04-21 07:43 33.13372 126.26226 32117 ft 438 kts 208°
2026-04-21 07:43 33.07662 126.23794 32134 ft 439 kts 208°
2026-04-21 07:44 33.01912 126.21339 32123 ft 439 kts 208°
2026-04-21 07:44 32.96160 126.18877 32131 ft 438 kts 208°
2026-04-21 07:45 32.90428 126.16410 32132 ft 437 kts 208°
2026-04-21 07:45 32.84704 126.13952 32125 ft 437 kts 207°
2026-04-21 07:46 32.78983 126.11508 32127 ft 437 kts 207°
2026-04-21 07:46 32.73263 126.09066 32127 ft 436 kts 207°
2026-04-21 07:47 32.67551 126.06627 32123 ft 436 kts 207°
2026-04-21 07:47 32.61847 126.04200 32117 ft 435 kts 207°
2026-04-21 07:48 32.56148 126.01775 32128 ft 435 kts 207°
2026-04-21 07:48 32.50441 125.99345 32121 ft 436 kts 207°
2026-04-21 07:49 32.44737 125.96922 32109 ft 435 kts 207°
2026-04-21 07:49 32.39078 125.94527 32120 ft 435 kts 206°
2026-04-21 07:50 32.33382 125.92117 32101 ft 435 kts 206°
2026-04-21 07:50 32.27683 125.89712 32101 ft 434 kts 206°
2026-04-21 07:51 32.21987 125.87310 32101 ft 435 kts 206°
2026-04-21 07:51 32.16287 125.84907 32108 ft 435 kts 207°
2026-04-21 07:52 32.10597 125.82500 32100 ft 434 kts 206°
2026-04-21 07:52 32.04904 125.80111 32098 ft 434 kts 206°
2026-04-21 07:53 31.99215 125.77741 32099 ft 434 kts 206°
2026-04-21 07:53 31.93508 125.75347 32095 ft 434 kts 206°
2026-04-21 07:54 31.87858 125.72962 32091 ft 434 kts 206°
2026-04-21 07:54 31.82176 125.70565 32085 ft 434 kts 206°
2026-04-21 07:55 31.76480 125.68177 32082 ft 434 kts 206°
2026-04-21 07:55 31.70787 125.65806 32077 ft 435 kts 206°
2026-04-21 07:56 31.65091 125.63425 32075 ft 435 kts 206°
2026-04-21 07:56 31.59385 125.61034 32074 ft 435 kts 206°
2026-04-21 07:57 31.53682 125.58651 32074 ft 435 kts 206°
2026-04-21 07:57 31.47985 125.56257 32076 ft 435 kts 206°
2026-04-21 07:58 31.42277 125.53866 32076 ft 436 kts 206°
2026-04-21 07:58 31.36567 125.51481 32072 ft 436 kts 205°
2026-04-21 07:59 31.30847 125.49093 32071 ft 436 kts 206°
2026-04-21 07:59 31.25124 125.46706 32067 ft 437 kts 205°
2026-04-21 08:00 31.19386 125.44315 32070 ft 438 kts 205°
2026-04-21 08:00 31.13634 125.41929 32072 ft 439 kts 205°
2026-04-21 08:01 31.07888 125.39544 32076 ft 439 kts 205°
2026-04-21 08:02 30.99262 125.35962 32075 ft 439 kts 205°
2026-04-21 08:02 30.93500 125.33579 32075 ft 440 kts 205°
2026-04-21 08:03 30.87731 125.31197 32078 ft 440 kts 205°
2026-04-21 08:03 30.81991 125.28827 32081 ft 440 kts 205°
2026-04-21 08:04 30.76214 125.26440 32080 ft 440 kts 205°
2026-04-21 08:04 30.70440 125.24057 32081 ft 441 kts 205°
2026-04-21 08:05 30.64654 125.21673 32080 ft 441 kts 204°
2026-04-21 08:05 30.58874 125.19298 32079 ft 441 kts 204°
2026-04-21 08:06 30.53081 125.16927 32079 ft 441 kts 204°
2026-04-21 08:06 30.47327 125.14565 32079 ft 441 kts 204°
2026-04-21 08:07 30.41535 125.12186 32080 ft 442 kts 204°
2026-04-21 08:07 30.35737 125.09814 32079 ft 442 kts 204°
2026-04-21 08:08 30.29941 125.07445 32081 ft 442 kts 204°
2026-04-21 08:08 30.24132 125.05082 32078 ft 442 kts 204°
2026-04-21 08:09 30.18331 125.02724 32074 ft 442 kts 204°
2026-04-21 08:09 30.12534 125.00359 32072 ft 442 kts 204°
2026-04-21 08:10 30.06726 124.97992 32070 ft 442 kts 204°
2026-04-21 08:10 30.00920 124.95638 32069 ft 442 kts 204°
2026-04-21 08:11 29.95125 124.93241 32066 ft 442 kts 204°
2026-04-21 08:11 29.89362 124.90759 32067 ft 442 kts 205°
2026-04-21 08:12 29.83599 124.88269 32070 ft 442 kts 205°
2026-04-21 08:12 29.77822 124.85803 32066 ft 442 kts 204°
2026-04-21 08:13 29.72057 124.83342 32063 ft 442 kts 204°
2026-04-21 08:13 29.66276 124.80882 32063 ft 442 kts 204°
2026-04-21 08:14 29.60503 124.78433 32062 ft 442 kts 204°
2026-04-21 08:14 29.54723 124.75985 32063 ft 443 kts 204°
2026-04-21 08:15 29.49914 124.73955 32062 ft 443 kts 204°
2026-04-21 08:15 29.43201 124.71106 32059 ft 442 kts 204°
2026-04-21 08:16 29.38360 124.69058 32058 ft 443 kts 204°
2026-04-21 08:16 29.32575 124.66627 32056 ft 443 kts 204°
2026-04-21 08:17 29.26832 124.64208 32054 ft 443 kts 204°
2026-04-21 08:17 29.21047 124.61775 32056 ft 443 kts 204°
2026-04-21 08:18 29.15261 124.59341 32057 ft 443 kts 204°
2026-04-21 08:18 29.09475 124.56913 32056 ft 443 kts 204°
2026-04-21 08:19 29.03686 124.54481 32058 ft 442 kts 204°
2026-04-21 08:19 28.97913 124.52061 32056 ft 442 kts 204°
2026-04-21 08:20 28.92565 124.48793 32053 ft 434 kts 219°
2026-04-21 08:20 28.87632 124.44805 32058 ft 434 kts 218°
2026-04-21 08:21 28.82688 124.40835 32060 ft 434 kts 218°
2026-04-21 08:21 28.77774 124.36898 32061 ft 435 kts 218°
2026-04-21 08:22 28.72819 124.32935 32063 ft 435 kts 218°
2026-04-21 08:22 28.67873 124.28979 32061 ft 434 kts 218°
2026-04-21 08:23 28.62933 124.25027 32058 ft 434 kts 218°
2026-04-21 08:23 28.57995 124.21081 32055 ft 433 kts 218°
2026-04-21 08:24 28.53061 124.17149 32050 ft 433 kts 218°
2026-04-21 08:24 28.48157 124.13253 32042 ft 433 kts 218°
2026-04-21 08:25 28.43229 124.09321 32039 ft 432 kts 218°
2026-04-21 08:25 28.38299 124.05394 32037 ft 433 kts 218°
2026-04-21 08:26 28.33365 124.01481 32031 ft 432 kts 218°
2026-04-21 08:26 28.27986 123.98307 32025 ft 438 kts 207°
2026-04-21 08:27 28.22366 123.95627 32019 ft 438 kts 207°
2026-04-21 08:27 28.16755 123.92937 32019 ft 438 kts 207°
2026-04-21 08:28 28.11177 123.90266 32018 ft 438 kts 207°
2026-04-21 08:28 28.05555 123.87582 32018 ft 438 kts 207°
2026-04-21 08:29 27.99946 123.84902 32020 ft 438 kts 207°
2026-04-21 08:29 27.94330 123.82230 32017 ft 438 kts 207°
2026-04-21 08:30 27.88719 123.79568 32014 ft 437 kts 207°
2026-04-21 08:30 27.83109 123.76889 32010 ft 437 kts 207°
2026-04-21 08:31 27.77504 123.74212 32008 ft 438 kts 207°
2026-04-21 08:31 27.71914 123.71558 32007 ft 438 kts 207°
2026-04-21 08:32 27.66294 123.68900 32006 ft 438 kts 207°
2026-04-21 08:32 27.60816 123.65972 32004 ft 432 kts 217°
2026-04-21 08:33 27.55932 123.62037 32004 ft 431 kts 219°
2026-04-21 08:33 27.51059 123.58080 32005 ft 432 kts 219°
2026-04-21 08:34 27.46178 123.54132 32004 ft 432 kts 219°
2026-04-21 08:34 27.41289 123.50180 32005 ft 433 kts 219°
2026-04-21 08:35 27.36401 123.46223 32008 ft 433 kts 219°
2026-04-21 08:35 27.31503 123.42271 32005 ft 434 kts 219°
2026-04-21 08:36 27.26595 123.38311 32009 ft 434 kts 219°
2026-04-21 08:36 27.21686 123.34359 32011 ft 434 kts 219°
2026-04-21 08:37 27.16777 123.30406 32009 ft 434 kts 219°
2026-04-21 08:37 27.11863 123.26456 32006 ft 435 kts 219°
2026-04-21 08:38 27.06939 123.22510 32007 ft 435 kts 219°
2026-04-21 08:38 27.02016 123.18565 32007 ft 435 kts 219°
2026-04-21 08:39 26.97114 123.14637 32006 ft 435 kts 219°
2026-04-21 08:39 26.92183 123.10693 32004 ft 436 kts 219°
2026-04-21 08:40 26.87246 123.06744 32002 ft 436 kts 218°
2026-04-21 08:40 26.82298 123.02795 32002 ft 436 kts 218°
2026-04-21 08:41 26.77352 122.98850 31999 ft 437 kts 218°
2026-04-21 08:41 26.72394 122.94912 32001 ft 437 kts 218°
2026-04-21 08:42 26.67440 122.90979 31999 ft 436 kts 218°
2026-04-21 08:42 26.62483 122.87049 31998 ft 437 kts 218°
2026-04-21 08:43 26.57523 122.83121 31997 ft 437 kts 218°
2026-04-21 08:43 26.52570 122.79208 31985 ft 437 kts 218°
2026-04-21 08:44 26.47605 122.75278 31981 ft 437 kts 218°
2026-04-21 08:44 26.42651 122.71356 31984 ft 437 kts 218°
2026-04-21 08:45 26.37697 122.67430 31978 ft 437 kts 218°
2026-04-21 08:45 26.32739 122.63513 31976 ft 437 kts 218°
2026-04-21 08:46 26.27802 122.59612 31977 ft 437 kts 218°
2026-04-21 08:46 26.22835 122.55694 31981 ft 437 kts 218°
2026-04-21 08:47 26.17862 122.51773 31984 ft 438 kts 218°
2026-04-21 08:47 26.12888 122.47868 31979 ft 438 kts 218°
2026-04-21 08:48 26.07906 122.43964 31976 ft 438 kts 218°
2026-04-21 08:48 26.02924 122.40064 31976 ft 438 kts 218°
2026-04-21 08:49 25.97940 122.36165 31976 ft 438 kts 218°
2026-04-21 08:49 25.92952 122.32267 31977 ft 438 kts 218°
2026-04-21 08:50 25.87999 122.28402 31972 ft 438 kts 218°
2026-04-21 08:50 25.83018 122.24510 31973 ft 438 kts 218°
2026-04-21 08:51 25.78034 122.20625 31971 ft 438 kts 218°
2026-04-21 08:51 25.73053 122.16744 31961 ft 437 kts 218°
2026-04-21 08:52 25.68071 122.12874 31963 ft 437 kts 218°
2026-04-21 08:52 25.63090 122.08994 31967 ft 437 kts 220°
2026-04-21 08:53 25.58819 122.04301 31968 ft 432 kts 231°
2026-04-21 08:53 25.54885 121.99257 31965 ft 432 kts 231°
2026-04-21 08:54 25.50922 121.94237 31956 ft 433 kts 231°
2026-04-21 08:54 25.46986 121.89255 31951 ft 433 kts 231°
2026-04-21 08:55 25.43013 121.84222 31951 ft 434 kts 231°
2026-04-21 08:55 25.39046 121.79188 31950 ft 434 kts 231°
2026-04-21 08:56 25.35067 121.74156 31952 ft 435 kts 231°
2026-04-21 08:56 25.31080 121.69124 31955 ft 435 kts 231°
2026-04-21 08:57 25.27095 121.64088 31956 ft 435 kts 231°
2026-04-21 08:57 25.23106 121.59048 31953 ft 436 kts 231°
2026-04-21 08:58 25.19107 121.54007 31957 ft 436 kts 231°
2026-04-21 08:58 25.15112 121.48950 31956 ft 436 kts 232°
2026-04-21 08:59 25.11193 121.43845 31949 ft 436 kts 232°
2026-04-21 08:59 25.07282 121.38731 31951 ft 436 kts 232°
2026-04-21 09:00 25.03348 121.33623 31934 ft 436 kts 232°
2026-04-21 09:00 24.99412 121.28531 31938 ft 437 kts 232°
2026-04-21 09:01 24.95465 121.23442 31927 ft 437 kts 232°
2026-04-21 09:01 24.91535 121.18370 31928 ft 437 kts 232°
2026-04-21 09:02 24.87584 121.13275 31923 ft 438 kts 232°
2026-04-21 09:02 24.83623 121.08184 31928 ft 438 kts 232°
2026-04-21 09:03 24.77669 121.00529 31931 ft 439 kts 232°
2026-04-21 09:03 24.73695 120.95428 31924 ft 439 kts 233°
2026-04-21 09:04 24.70395 120.91186 31930 ft 439 kts 233°
2026-04-21 09:04 24.66415 120.86073 31923 ft 440 kts 233°
2026-04-21 09:05 24.62432 120.80964 31929 ft 440 kts 233°
2026-04-21 09:05 24.58434 120.75861 31926 ft 441 kts 233°
2026-04-21 09:06 24.54395 120.70776 31942 ft 443 kts 231°
2026-04-21 09:06 24.50133 120.65869 31938 ft 444 kts 230°
2026-04-21 09:07 24.45789 120.61052 31942 ft 444 kts 230°
2026-04-21 09:07 24.41465 120.56193 31938 ft 445 kts 230°
2026-04-21 09:08 24.37177 120.51292 31925 ft 445 kts 231°
2026-04-21 09:08 24.32919 120.46417 31923 ft 446 kts 231°
2026-04-21 09:09 24.28605 120.41507 31935 ft 448 kts 231°
2026-04-21 09:09 24.24271 120.36596 31936 ft 448 kts 230°
2026-04-21 09:10 24.19935 120.31686 31945 ft 449 kts 231°
2026-04-21 09:10 24.15596 120.26766 31947 ft 449 kts 231°
2026-04-21 09:11 24.11250 120.21840 31935 ft 450 kts 231°
2026-04-21 09:11 24.06899 120.16913 31934 ft 451 kts 231°
2026-04-21 09:12 24.02529 120.11986 31938 ft 451 kts 231°
2026-04-21 09:12 23.98159 120.07071 31944 ft 451 kts 231°
2026-04-21 09:13 23.93780 120.02142 31945 ft 452 kts 231°
2026-04-21 09:13 23.89428 119.97232 31947 ft 452 kts 231°
2026-04-21 09:14 23.85051 119.92306 31948 ft 452 kts 231°
2026-04-21 09:14 23.80672 119.87377 31953 ft 452 kts 231°
2026-04-21 09:15 23.76290 119.82466 31962 ft 450 kts 229°
2026-04-21 09:15 23.71942 119.77619 31925 ft 439 kts 227°
2026-04-21 09:16 23.67730 119.72901 31948 ft 431 kts 227°
2026-04-21 09:16 23.63547 119.68203 31936 ft 431 kts 227°
2026-04-21 09:17 23.59458 119.63432 31946 ft 430 kts 234°
2026-04-21 09:17 23.56202 119.57965 31939 ft 430 kts 238°
2026-04-21 09:18 23.53010 119.52443 31946 ft 431 kts 238°
2026-04-21 09:18 23.49834 119.46960 31929 ft 431 kts 238°
2026-04-21 09:19 23.46628 119.41434 31932 ft 432 kts 238°
2026-04-21 09:19 23.43415 119.35901 31941 ft 432 kts 238°
2026-04-21 09:20 23.40195 119.30372 31933 ft 433 kts 238°
2026-04-21 09:20 23.36972 119.24839 31936 ft 433 kts 238°
2026-04-21 09:21 23.33750 119.19303 31947 ft 434 kts 238°
2026-04-21 09:21 23.30510 119.13751 31947 ft 434 kts 238°
2026-04-21 09:22 23.27265 119.08197 31946 ft 435 kts 238°
2026-04-21 09:22 23.24017 119.02657 31945 ft 435 kts 238°
2026-04-21 09:23 23.20763 118.97099 31945 ft 435 kts 239°
2026-04-21 09:23 23.17533 118.91586 31936 ft 435 kts 239°
2026-04-21 09:24 23.14276 118.86032 31926 ft 436 kts 239°
2026-04-21 09:24 23.10998 118.80468 31946 ft 437 kts 239°
2026-04-21 09:25 23.07721 118.74905 31947 ft 437 kts 239°
2026-04-21 09:25 23.04437 118.69324 31948 ft 438 kts 239°
2026-04-21 09:26 23.01178 118.63787 31936 ft 438 kts 239°
2026-04-21 09:26 22.97883 118.58214 31944 ft 439 kts 239°
2026-04-21 09:27 22.94596 118.52642 31944 ft 439 kts 239°
2026-04-21 09:27 22.91293 118.47074 31941 ft 439 kts 238°
2026-04-21 09:28 22.87982 118.41513 31945 ft 439 kts 238°
2026-04-21 09:28 22.84666 118.35959 31944 ft 439 kts 238°
2026-04-21 09:29 22.81346 118.30401 31944 ft 439 kts 238°
2026-04-21 09:29 22.78027 118.24848 31943 ft 439 kts 238°
2026-04-21 09:30 22.75320 118.20309 31924 ft 439 kts 240°
2026-04-21 09:30 22.72015 118.15605 31901 ft 441 kts 238°
2026-04-21 09:31 22.68797 118.09946 31914 ft 442 kts 242°
2026-04-21 09:31 22.65700 118.04240 31927 ft 442 kts 241°
2026-04-21 09:32 22.62405 117.98602 31930 ft 443 kts 239°
2026-04-21 09:32 22.59005 117.93040 31931 ft 443 kts 239°
2026-04-21 09:33 22.55640 117.87454 31940 ft 443 kts 240°
2026-04-21 09:33 22.52314 117.81853 31945 ft 443 kts 240°
2026-04-21 09:34 22.48993 117.76249 31947 ft 442 kts 240°
2026-04-21 09:34 22.45674 117.70650 31940 ft 442 kts 240°
2026-04-21 09:35 22.42348 117.65074 31941 ft 442 kts 239°
2026-04-21 09:35 22.39004 117.59487 31934 ft 442 kts 239°
2026-04-21 09:36 22.35845 117.53798 31927 ft 439 kts 249°
2026-04-21 09:36 22.34490 117.47444 31935 ft 435 kts 269°
2026-04-21 09:37 22.35270 117.40990 31928 ft 434 kts 282°
2026-04-21 09:37 22.36623 117.34621 31924 ft 435 kts 282°
2026-04-21 09:38 22.37962 117.28239 31923 ft 436 kts 282°
2026-04-21 09:38 22.39309 117.21850 31920 ft 436 kts 282°
2026-04-21 09:39 22.40664 117.15452 31926 ft 436 kts 282°
2026-04-21 09:39 22.42011 117.09056 31927 ft 436 kts 282°
2026-04-21 09:40 22.43353 117.02658 31926 ft 436 kts 282°
2026-04-21 09:40 22.44680 116.96308 31928 ft 436 kts 282°
2026-04-21 09:41 22.46019 116.89900 31930 ft 436 kts 282°
2026-04-21 09:41 22.47354 116.83500 31927 ft 436 kts 282°
2026-04-21 09:42 22.48689 116.77099 31936 ft 436 kts 282°
2026-04-21 09:42 22.50017 116.70704 31925 ft 436 kts 282°
2026-04-21 09:43 22.50541 116.64211 31934 ft 435 kts 267°
2026-04-21 09:43 22.50169 116.57658 31926 ft 436 kts 267°
2026-04-21 09:44 22.49814 116.51115 31929 ft 436 kts 267°
2026-04-21 09:44 22.49454 116.44573 31926 ft 436 kts 267°
2026-04-21 09:45 22.49087 116.38021 31922 ft 436 kts 267°
2026-04-21 09:45 22.48715 116.31473 31917 ft 437 kts 267°
2026-04-21 09:46 22.48343 116.24928 31921 ft 437 kts 267°
2026-04-21 09:46 22.47969 116.18414 31924 ft 437 kts 267°
2026-04-21 09:47 22.47594 116.11819 31914 ft 437 kts 267°
2026-04-21 09:47 22.47209 116.05308 31911 ft 437 kts 267°
2026-04-21 09:48 22.46819 115.98753 31914 ft 437 kts 267°
2026-04-21 09:48 22.46433 115.92197 31915 ft 437 kts 267°
2026-04-21 09:49 22.46046 115.85653 31911 ft 436 kts 267°
2026-04-21 09:49 22.45656 115.79100 31910 ft 437 kts 267°
2026-04-21 09:50 22.45395 115.74718 31907 ft 437 kts 267°
2026-04-21 09:50 22.44861 115.65996 31905 ft 437 kts 267°
2026-04-21 09:51 22.44528 115.60547 31904 ft 437 kts 267°
2026-04-21 09:51 22.44128 115.53993 31904 ft 437 kts 267°
2026-04-21 09:52 22.43731 115.47434 31904 ft 437 kts 267°
2026-04-21 09:52 22.43322 115.40885 31901 ft 437 kts 267°
2026-04-21 09:53 22.42908 115.34337 31897 ft 437 kts 266°
2026-04-21 09:53 22.42492 115.27785 31893 ft 437 kts 267°
2026-04-21 09:54 22.42073 115.21229 31893 ft 437 kts 267°
2026-04-21 09:54 22.41652 115.14681 31890 ft 437 kts 266°
2026-04-21 09:55 22.41229 115.08126 31893 ft 437 kts 267°
2026-04-21 09:55 22.40815 115.01578 31891 ft 436 kts 267°
2026-04-21 09:56 22.40392 114.95039 31885 ft 437 kts 266°
2026-04-21 09:56 22.39961 114.88494 31883 ft 437 kts 266°
2026-04-21 09:57 22.39528 114.81954 31882 ft 436 kts 266°
2026-04-21 09:57 22.39098 114.75445 31878 ft 437 kts 266°
2026-04-21 09:58 22.38660 114.68894 31875 ft 437 kts 266°
2026-04-21 09:58 22.38221 114.62336 31879 ft 438 kts 267°
2026-04-21 09:59 22.37777 114.55773 31877 ft 438 kts 266°
2026-04-21 09:59 22.37551 114.52502 31718 ft 433 kts 266°
2026-04-21 09:59 22.37329 114.49295 31463 ft 424 kts 266°
2026-04-21 10:00 22.37113 114.46151 31208 ft 414 kts 266°
2026-04-21 10:00 22.36905 114.43079 30955 ft 405 kts 266°
2026-04-21 10:00 22.36702 114.40084 30705 ft 396 kts 266°
2026-04-21 10:00 22.36502 114.37149 30454 ft 388 kts 266°
2026-04-21 10:01 22.36303 114.34277 30203 ft 380 kts 266°
2026-04-21 10:01 22.36105 114.31451 29950 ft 376 kts 266°
2026-04-21 10:01 22.35908 114.28637 29683 ft 374 kts 266°
2026-04-21 10:01 22.35712 114.25810 28915 ft 381 kts 266°
2026-04-21 10:02 22.35328 114.20192 27781 ft 373 kts 267°
2026-04-21 10:02 22.35134 114.17393 26738 ft 373 kts 267°
2026-04-21 10:02 22.34939 114.14616 25842 ft 370 kts 268°
2026-04-21 10:03 22.34742 114.11857 24958 ft 365 kts 268°
2026-04-21 10:03 22.34547 114.09142 24083 ft 360 kts 268°
2026-04-21 10:03 22.34356 114.06460 23208 ft 355 kts 268°
2026-04-21 10:03 22.34167 114.03828 22409 ft 349 kts 268°
2026-04-21 10:04 22.33982 114.01234 21723 ft 343 kts 267°
2026-04-21 10:04 22.33623 113.98703 21263 ft 343 kts 257°
2026-04-21 10:04 22.32817 113.96273 20878 ft 342 kts 247°
2026-04-21 10:04 22.31639 113.94070 20254 ft 339 kts 237°
2026-04-21 10:05 22.30081 113.92152 19480 ft 343 kts 225°
2026-04-21 10:05 22.28260 113.90573 19127 ft 336 kts 221°
2026-04-21 10:05 22.26439 113.89015 18510 ft 333 kts 222°
2026-04-21 10:05 22.24646 113.87462 17907 ft 328 kts 222°
2026-04-21 10:06 22.22884 113.85932 17211 ft 322 kts 222°
2026-04-21 10:06 22.21148 113.84424 16602 ft 319 kts 222°
2026-04-21 10:06 22.19424 113.82928 16000 ft 316 kts 221°
2026-04-21 10:06 22.17726 113.81456 15451 ft 311 kts 221°
2026-04-21 10:07 22.16047 113.80007 14907 ft 307 kts 221°
2026-04-21 10:07 22.14393 113.78583 14404 ft 301 kts 221°
2026-04-21 10:07 22.12768 113.77179 13910 ft 296 kts 221°
2026-04-21 10:07 22.11176 113.75807 13448 ft 290 kts 221°
2026-04-21 10:08 22.09620 113.74466 13004 ft 284 kts 221°
2026-04-21 10:08 22.08073 113.73133 12571 ft 284 kts 221°
2026-04-21 10:08 22.06525 113.71798 12132 ft 285 kts 221°
2026-04-21 10:08 22.04974 113.70461 11692 ft 286 kts 220°
2026-04-21 10:09 22.03552 113.68975 11247 ft 285 kts 234°
2026-04-21 10:09 22.02591 113.67121 10804 ft 286 kts 249°
2026-04-21 10:09 22.02157 113.65020 10294 ft 290 kts 265°
2026-04-21 10:09 22.02440 113.62863 9880 ft 295 kts 287°
2026-04-21 10:10 22.03466 113.61016 9643 ft 282 kts 309°
2026-04-21 10:10 22.04904 113.59665 9338 ft 268 kts 320°
2026-04-21 10:10 22.06397 113.58509 8820 ft 267 kts 322°
2026-04-21 10:10 22.07944 113.57384 8541 ft 271 kts 323°
2026-04-21 10:11 22.09510 113.56265 8129 ft 268 kts 323°
2026-04-21 10:11 22.11063 113.55157 7710 ft 268 kts 323°
2026-04-21 10:11 22.12596 113.54041 7274 ft 260 kts 323°
2026-04-21 10:11 22.14023 113.52969 6917 ft 244 kts 322°
2026-04-21 10:12 22.15395 113.51917 6507 ft 241 kts 321°
2026-04-21 10:12 22.16745 113.50867 6090 ft 238 kts 321°
2026-04-21 10:12 22.18093 113.49823 5665 ft 236 kts 321°
2026-04-21 10:12 22.19436 113.48809 5261 ft 233 kts 326°
2026-04-21 10:13 22.20880 113.48140 4831 ft 221 kts 344°
2026-04-21 10:13 22.22363 113.47923 4340 ft 208 kts 359°
2026-04-21 10:13 22.23752 113.48097 3845 ft 196 kts 15°
2026-04-21 10:13 22.24984 113.48590 3446 ft 182 kts 29°
2026-04-21 10:14 22.26023 113.49272 3103 ft 175 kts 35°
2026-04-21 10:14 22.27055 113.49973 2749 ft 172 kts 34°
2026-04-21 10:14 22.28050 113.50643 2402 ft 170 kts 34°
2026-04-21 10:14 22.29041 113.51349 2052 ft 167 kts 44°
2026-04-21 10:15 22.29832 113.52218 2013 ft 165 kts 57°
2026-04-21 10:15 22.30003 113.53349 1987 ft 151 kts 118°
2026-04-21 10:15 22.29248 113.53985 2011 ft 140 kts 172°
2026-04-21 10:15 22.28279 113.54162 2020 ft 142 kts 160°
2026-04-21 10:16 22.27363 113.54547 2019 ft 141 kts 162°
2026-04-21 10:16 22.26434 113.54900 2012 ft 141 kts 163°
2026-04-21 10:16 22.25506 113.55243 1918 ft 141 kts 164°
2026-04-21 10:16 22.24572 113.55587 1786 ft 143 kts 163°
2026-04-21 10:17 22.23634 113.55937 1618 ft 142 kts 163°
2026-04-21 10:17 22.22695 113.56283 1418 ft 142 kts 164°
2026-04-21 10:17 22.21756 113.56625 1228 ft 142 kts 164°
2026-04-21 10:17 22.20818 113.56968 1039 ft 142 kts 163°
2026-04-21 10:18 22.19881 113.57314 842 ft 142 kts 163°
2026-04-21 10:18 22.18942 113.57662 657 ft 142 kts 163°
2026-04-21 10:18 22.18005 113.58010 468 ft 142 kts 163°
2026-04-21 10:18 22.17068 113.58355 280 ft 143 kts 163°
2026-04-21 10:19 22.16130 113.58701 89 ft 143 kts 163°
2026-04-21 10:19 22.15263 113.59026 29 ft 99 kts 160°
2026-04-21 10:19 22.14898 113.59160 28 ft 12 kts 161°
2026-04-21 10:19 22.14873 113.59169 28 ft 10 kts 161°
2026-04-21 10:20 22.14781 113.59204 27 ft 17 kts 161°
2026-04-21 10:20 22.14687 113.59239 28 ft 10 kts 161°
2026-04-21 10:20 22.14619 113.59236 28 ft 10 kts 211°
2026-04-21 10:20 22.14583 113.59169 28 ft 11 kts 249°
2026-04-21 10:21 22.14593 113.59091 28 ft 12 kts 316°
2026-04-21 10:21 22.14670 113.59057 28 ft 12 kts 341°
2026-04-21 10:21 22.14744 113.59008 29 ft 13 kts 308°
2026-04-21 10:21 22.14795 113.58923 29 ft 14 kts 303°
2026-04-21 10:22 22.14851 113.58834 29 ft 15 kts 304°
2026-04-21 10:22 22.14912 113.58737 29 ft 16 kts 303°
2026-04-21 10:22 22.14973 113.58637 29 ft 17 kts 303°
2026-04-21 10:22 22.15039 113.58531 29 ft 17 kts 303°
2026-04-21 10:23 22.15108 113.58420 29 ft 18 kts 303°
2026-04-21 10:23 22.15180 113.58304 29 ft 19 kts 303°
2026-04-21 10:23 22.15254 113.58183 29 ft 20 kts 304°
2026-04-21 10:23 22.15331 113.58059 29 ft 20 kts 303°
2026-04-21 10:24 22.15410 113.57931 29 ft 21 kts 303°
2026-04-21 10:24 22.15492 113.57799 29 ft 21 kts 303°
2026-04-21 10:24 22.15563 113.57682 29 ft 14 kts 303°
2026-04-21 10:24 22.15596 113.57632 29 ft 7 kts 311°
2026-04-21 10:25 22.15630 113.57593 29 ft 5 kts 313°
2026-04-21 10:25 22.15634 113.57589 29 ft 1 kts 315°
2026-04-21 10:25 22.15642 113.57580 29 ft 2 kts 315°
2026-04-21 10:25 22.15652 113.57569 29 ft 2 kts 314°
2026-04-21 10:26 22.15660 113.57560 29 ft 2 kts 314°
2026-04-21 10:26 22.15668 113.57550 29 ft 1 kts 314°
2026-04-21 10:26 22.15674 113.57544 29 ft 1 kts 314°
2026-04-21 10:26 22.15678 113.57540 29 ft 1 kts 314°
2026-04-21 10:27 22.15681 113.57536 29 ft 1 kts 314°
2026-04-21 10:27 22.15684 113.57534 29 ft 0 kts 314°
2026-04-21 10:27 22.15686 113.57531 29 ft 0 kts 314°
2026-04-21 10:27 22.15689 113.57528 29 ft 0 kts 314°